Meteo pe oră la Abbey

Astăzi, 24 Iulie, Sâmbătă

Timp Temperatura Precipitaţii Vânt Presiune Umiditate
00:00 +19°C° 0 mm 2 m/s 703 mmHg 33%
01:00 +19°C° 0 mm 1 m/s 703 mmHg 36%
02:00 +18°C° 0 mm 1 m/s 703 mmHg 38%
03:00 +18°C° 0 mm 1 m/s 703 mmHg 39%
04:00 +17°C° 0 mm 2 m/s 704 mmHg 39%
05:00 +17°C° 0 mm 2 m/s 704 mmHg 40%
06:00 +19°C° 0 mm 2 m/s 705 mmHg 38%
07:00 +21°C° 0 mm 2 m/s 705 mmHg 35%
08:00 +24°C° 0 mm 2 m/s 706 mmHg 32%
09:00 +25°C° 0 mm 2 m/s 705 mmHg 30%
10:00 +27°C° 0 mm 2 m/s 705 mmHg 27%
11:00 +28°C° 0 mm 2 m/s 705 mmHg 24%
12:00 +29°C° 0 mm 2 m/s 705 mmHg 23%
13:00 +30°C° 0 mm 1 m/s 704 mmHg 21%
14:00 +30°C° 0 mm 1 m/s 704 mmHg 20%
15:00 +31°C° 0 mm 1 m/s 703 mmHg 20%
16:00 +31°C° 0 mm 2 m/s 703 mmHg 19%
17:00 +31°C° 0 mm 3 m/s 703 mmHg 19%
18:00 +29°C° 0 mm 3 m/s 702 mmHg 22%
19:00 +28°C° 0 mm 3 m/s 702 mmHg 26%
20:00 +26°C° 0 mm 3 m/s 702 mmHg 29%
21:00 +25°C° 0 mm 3 m/s 702 mmHg 30%
22:00 +24°C° 0 mm 3 m/s 702 mmHg 31%
23:00 +22°C° 0 mm 3 m/s 702 mmHg 32%

Mâine, 25 Iulie, Duminică

Timp Temperatura Precipitaţii Vânt Presiune Umiditate
00:00 +21°C° 0 mm 3 m/s 702 mmHg 33%
01:00 +21°C° 0 mm 3 m/s 702 mmHg 35%
02:00 +20°C° 0 mm 3 m/s 702 mmHg 36%
03:00 +20°C° 0 mm 3 m/s 702 mmHg 38%
04:00 +19°C° 0 mm 3 m/s 702 mmHg 40%
05:00 +19°C° 0 mm 3 m/s 702 mmHg 42%
06:00 +21°C° 0 mm 4 m/s 702 mmHg 38%
07:00 +22°C° 0 mm 4 m/s 703 mmHg 35%
08:00 +25°C° 0 mm 5 m/s 703 mmHg 31%
09:00 +27°C° 0 mm 5 m/s 703 mmHg 28%
10:00 +29°C° 0 mm 5 m/s 703 mmHg 25%
11:00 +32°C° 0 mm 5 m/s 703 mmHg 22%
12:00 +33°C° 0 mm 5 m/s 702 mmHg 21%
13:00 +34°C° 0 mm 5 m/s 702 mmHg 20%
14:00 +34°C° 0 mm 4 m/s 702 mmHg 19%
15:00 +35°C° 0 mm 4 m/s 701 mmHg 18%
16:00 +35°C° 0 mm 4 m/s 701 mmHg 18%
17:00 +35°C° 0 mm 3 m/s 700 mmHg 17%
18:00 +33°C° 0 mm 4 m/s 700 mmHg 21%
19:00 +30°C° 0 mm 4 m/s 700 mmHg 25%
20:00 +28°C° 0 mm 4 m/s 699 mmHg 28%
21:00 +27°C° 0 mm 5 m/s 699 mmHg 30%
22:00 +26°C° 0 mm 6 m/s 699 mmHg 31%
23:00 +24°C° 0 mm 6 m/s 699 mmHg 32%

Poimâine, 26 Iulie, Luni

Timp Temperatura Precipitaţii Vânt Presiune Umiditate
00:00 +23°C° 0 mm 5 m/s 699 mmHg 35%
01:00 +22°C° 0 mm 4 m/s 698 mmHg 38%
02:00 +21°C° 0 mm 4 m/s 698 mmHg 41%
03:00 +20°C° 0 mm 4 m/s 698 mmHg 43%
04:00 +19°C° 0 mm 4 m/s 698 mmHg 46%
05:00 +18°C° 0 mm 4 m/s 698 mmHg 48%
06:00 +20°C° 0 mm 4 m/s 698 mmHg 46%
07:00 +21°C° 0 mm 4 m/s 699 mmHg 43%
08:00 +22°C° 0 mm 5 m/s 700 mmHg 41%
09:00 +25°C° 0 mm 5 m/s 700 mmHg 38%
10:00 +26°C° 0 mm 5 m/s 701 mmHg 35%
11:00 +28°C° 0 mm 6 m/s 702 mmHg 33%
12:00 +29°C° 0 mm 5 m/s 702 mmHg 31%
13:00 +30°C° 0 mm 4 m/s 702 mmHg 30%
14:00 +32°C° 0 mm 4 m/s 702 mmHg 29%
15:00 +31°C° 0 mm 3 m/s 702 mmHg 28%
16:00 +31°C° 0 mm 3 m/s 702 mmHg 28%
17:00 +31°C° 0 mm 2 m/s 701 mmHg 28%
18:00 +30°C° 0 mm 3 m/s 701 mmHg 31%
19:00 +28°C° 0 mm 3 m/s 701 mmHg 35%
20:00 +27°C° 0 mm 4 m/s 701 mmHg 39%
21:00 +26°C° 0 mm 4 m/s 701 mmHg 40%
22:00 +25°C° 0 mm 4 m/s 701 mmHg 41%
23:00 +23°C° 0 mm 4 m/s 701 mmHg 43%

27 Iulie, Marţi

Timp Temperatura Precipitaţii Vânt Presiune Umiditate
00:00 +22°C° 0 mm 4 m/s 701 mmHg 45%
01:00 +21°C° 0 mm 3 m/s 701 mmHg 47%
02:00 +21°C° 0 mm 3 m/s 701 mmHg 49%
03:00 +20°C° 0 mm 3 m/s 701 mmHg 51%
04:00 +20°C° 0 mm 3 m/s 701 mmHg 53%
05:00 +19°C° 0 mm 3 m/s 701 mmHg 54%
06:00 +21°C° 0 mm 4 m/s 701 mmHg 49%
07:00 +25°C° 0 mm 4 m/s 701 mmHg 44%
08:00 +27°C° 0 mm 5 m/s 702 mmHg 38%
09:00 +29°C° 0 mm 5 m/s 702 mmHg 33%
10:00 +32°C° 0 mm 4 m/s 702 mmHg 28%
11:00 +35°C° 0 mm 4 m/s 703 mmHg 23%
12:00 +36°C° 0 mm 4 m/s 702 mmHg 22%
13:00 +37°C° 0 mm 4 m/s 702 mmHg 20%
14:00 +38°C° 0 mm 4 m/s 702 mmHg 18%
15:00 +39°C° 0 mm 5 m/s 702 mmHg 18%
16:00 +39°C° 0 mm 5 m/s 702 mmHg 18%
17:00 +37°C° 0 mm 5 m/s 702 mmHg 18%
18:00 +35°C° 0 mm 5 m/s 702 mmHg 23%
19:00 +33°C° 0 mm 5 m/s 702 mmHg 27%
20:00 +30°C° 0 mm 5 m/s 702 mmHg 32%
21:00 +29°C° 0 mm 5 m/s 703 mmHg 33%
22:00 +28°C° 0 mm 5 m/s 703 mmHg 35%
23:00 +27°C° 0 mm 5 m/s 703 mmHg 37%

28 Iulie, Miercuri

Timp Temperatura Precipitaţii Vânt Presiune Umiditate
00:00 +26°C° 0 mm 5 m/s 704 mmHg 39%
01:00 +25°C° 0 mm 4 m/s 704 mmHg 41%
02:00 +23°C° 0 mm 4 m/s 704 mmHg 43%
03:00 +22°C° 0 mm 4 m/s 704 mmHg 46%
04:00 +21°C° 0 mm 4 m/s 704 mmHg 48%
05:00 +21°C° 0 mm 4 m/s 704 mmHg 51%
06:00 +22°C° 0 mm 5 m/s 704 mmHg 47%
07:00 +25°C° 0 mm 5 m/s 705 mmHg 43%
08:00 +27°C° 0 mm 6 m/s 705 mmHg 39%
09:00 +29°C° 0 mm 6 m/s 705 mmHg 34%
10:00 +33°C° 0 mm 6 m/s 706 mmHg 30%
11:00 +35°C° 0 mm 5 m/s 706 mmHg 26%
12:00 +36°C° 0 mm 5 m/s 706 mmHg 24%
13:00 +37°C° 0 mm 4 m/s 706 mmHg 22%
14:00 +38°C° 0 mm 3 m/s 705 mmHg 20%
15:00 +38°C° 0 mm 3 m/s 705 mmHg 19%
16:00 +38°C° 0 mm 3 m/s 705 mmHg 19%
17:00 +38°C° 0 mm 3 m/s 704 mmHg 18%
18:00 +36°C° 0 mm 3 m/s 704 mmHg 22%
19:00 +34°C° 0 mm 3 m/s 704 mmHg 25%
20:00 +32°C° 0 mm 4 m/s 704 mmHg 28%
21:00 +30°C° 0 mm 3 m/s 704 mmHg 29%
22:00 +29°C° 0 mm 3 m/s 704 mmHg 31%
23:00 +28°C° 0 mm 3 m/s 704 mmHg 33%

29 Iulie, Joi

Timp Temperatura Precipitaţii Vânt Presiune Umiditate
00:00 +27°C° 0 mm 3 m/s 704 mmHg 35%
01:00 +26°C° 0 mm 3 m/s 704 mmHg 37%
02:00 +26°C° 0 mm 2 m/s 704 mmHg 39%
03:00 +25°C° 0 mm 2 m/s 704 mmHg 42%
04:00 +25°C° 0 mm 2 m/s 704 mmHg 44%
05:00 +25°C° 0 mm 1 m/s 704 mmHg 47%
06:00 +27°C° 0 mm 2 m/s 704 mmHg 42%
07:00 +29°C° 0 mm 2 m/s 704 mmHg 37%
08:00 +31°C° 0 mm 2 m/s 705 mmHg 32%
09:00 +34°C° 0 mm 2 m/s 705 mmHg 29%
10:00 +35°C° 0 mm 2 m/s 705 mmHg 26%
11:00 +37°C° 0 mm 2 m/s 705 mmHg 23%
12:00 +38°C° 0 mm 2 m/s 704 mmHg 22%
13:00 +39°C° 0 mm 2 m/s 704 mmHg 20%
14:00 +39°C° 0 mm 2 m/s 704 mmHg 19%
15:00 +38°C° 0.1 mm 3 m/s 703 mmHg 23%
16:00 +37°C° 0.1 mm 4 m/s 703 mmHg 27%
17:00 +36°C° 0.1 mm 5 m/s 703 mmHg 30%
18:00 +34°C° 0.1 mm 5 m/s 703 mmHg 36%
19:00 +30°C° 0.1 mm 4 m/s 703 mmHg 41%
20:00 +28°C° 0.1 mm 3 m/s 703 mmHg 47%
21:00 +27°C° 0 mm 2 m/s 703 mmHg 48%
22:00 +27°C° 0 mm 2 m/s 703 mmHg 49%
23:00 +26°C° 0 mm 2 m/s 703 mmHg 50%
Arată mai mult

Formular de consimțământ

Meteoprog și furnizorii noștri de servicii pot stoca și accesa date personale, precum cookies, identificatori de dispozitiv sau alte tehnologii similare pe dispozitivul dumneavoastră și procesa astfel de date pentru a personaliza conținutul și reclamele, dar și pentru a oferi caracteristici de social media și pentru a analiza traficul.

  • Stocarea și/sau accesarea informațiilor pe dispozitivul dumneavoastră

    Cookies, identificatori de dispozitiv sau alte informații pot fi stocate sau accesate pe dispozitiv în scopurile indicate mai sus.

  • Reclame și conținut personalizat, evaluarea reclamelor și a conținutului, informații despre audiențe și dezvoltarea produselor

    Reclamele și conținutul pot fi personalizate pe baza unui profil. Pot fi adăugate date suplimentare pentru a personaliza mai bine reclamele și conținutul. Performanța reclamelor și conținutului poate fi măsurată. Pot fi obținute informații despre utilizatorii care au văzut reclamele și conținutul. Aceste date pot fi utilizate pentru a dezvolta sau îmbunătăți experiența utilizatorilor, sistemele și software-ul.

Dând clic pe ‘Sunt de acord’, permiteți utilizarea cookie-urilor menționate, a identificatorilor de dispozitiv, balizelor web sau altor tehnologii similare. Setările pot fi modificate din browser-ul dispozitivului dumneavoastră.

În anumite scopuri, interesele legitime pot prima asupra consimțământului. Puteți citi mai multe informații în acest sens în Politica privind Confidențialitatea Datelor și Cookie.